[[{"header":{"parameterUnit":"m.s-1","parameterCategory":1,"la1":30.2992,"la2":30.254,"lo1":-89.0895,"lo2":-89.0443,"dy":0.0025,"dx":0.0025,"nx":19,"ny":19,"refTime":"2026-05-23T21:00:00:Z","depth":0,"parameterNumber":2,"parameterNumberName":"U-component_of_WINDS"},"data":[0,0,0,1.7239,1.7239,1.7201,1.7201,1.7155,1.7154,0,0,0,0,0,0,0,0,0,0,0,1.7254,1.7254,1.7239,1.7239,1.7201,1.7201,1.7155,1.7154,0,0,0,0,0,0,0,0,0,0,0,1.7254,1.7254,1.7253,1.7239,1.7201,1.7201,1.7155,1.7182,0,0,0,0,0,0,0,0,0,0,1.7218,1.7235,1.7254,1.7253,1.7238,1.7202,1.7201,1.7183,1.718,1.7173,0,1.717,0,1.7161,1.7152,1.7152,0,0,0,1.7236,1.7237,1.7225,1.7253,1.7238,1.7202,1.7217,1.7182,1.7178,1.7169,1.7169,1.7167,1.7161,1.7151,1.7151,1.7124,1.7124,0,0,1.7238,1.7248,1.7227,1.7223,1.7231,1.7219,1.7216,1.718,1.7179,1.7169,1.7166,1.716,1.7151,1.7151,1.7124,1.7124,0,0,0,1.7246,1.725,1.7238,1.7225,1.7218,1.7218,1.7215,1.7181,1.7176,1.7165,1.7159,1.7151,1.715,1.7124,1.7124,1.7135,0,0,0,1.7247,1.7254,1.7239,1.7245,1.7219,1.7199,1.7217,1.7179,1.7174,1.716,1.7151,1.715,1.7124,1.7124,1.7135,1.7139,0,0,0,1.7255,1.7255,1.7251,1.7246,1.723,1.72,1.7193,1.7177,1.7171,1.7152,1.715,1.7124,1.7124,1.7135,1.7138,1.7134,0,0,0,1.7266,1.7262,1.7252,1.7244,1.7231,1.7208,1.7193,1.7175,1.716,1.7151,1.7124,1.7124,1.7134,1.7138,1.7134,1.7133,1.7134,0,0,1.7266,1.7262,1.7256,1.7246,1.7229,1.7213,1.7195,1.7171,1.7158,1.7135,1.7134,1.7135,1.7138,1.7134,1.7134,1.7135,0,0,0,1.726,1.7256,1.7249,1.7236,1.7218,1.7202,1.718,1.717,1.715,1.7149,1.7132,1.7134,1.7131,1.713,1.713,1.7127,1.7124,1.7124,1.7124,1.7274,1.726,1.7249,1.723,1.7217,1.7194,1.7181,1.7164,1.7152,1.7148,1.7141,1.7144,1.7143,1.7143,1.7139,1.714,1.714,1.714,1.714,1.7272,1.7264,1.7249,1.7233,1.7217,1.7202,1.7178,1.717,1.7153,1.7148,1.7144,1.714,1.7144,1.714,1.714,1.714,1.714,1.714,1.714,1.728,1.7274,1.7264,1.7243,1.7228,1.7207,1.7192,1.7177,1.7162,1.7159,1.7149,1.7149,1.7146,1.7156,1.7156,1.7156,1.7156,1.7156,1.7156,1.7293,1.7281,1.7271,1.7251,1.724,1.7224,1.7199,1.7187,1.7169,1.7159,1.7159,1.7147,1.7148,1.7149,1.7156,1.7156,1.7156,1.7156,1.7156,1.7296,1.7293,1.7277,1.7267,1.7241,1.7226,1.7208,1.7184,1.7172,1.7164,1.7152,1.7156,1.715,1.7149,1.7149,1.7156,1.7156,1.7156,1.7156,1.7302,1.7298,1.7278,1.7262,1.7244,1.7225,1.7205,1.7185,1.7163,1.7154,1.715,1.7149,1.715,1.7143,1.7143,1.7143,1.7148,1.7148,1.7148,1.7303,1.7296,1.7284,1.7264,1.7243,1.7224,1.7204,1.7184,1.7158,1.7147,1.7146,1.7146,1.7144,1.7145,1.7135,1.7134,1.7134,0,0]},{"header":{"parameterUnit":"m.s-1","parameterCategory":1,"la1":30.2992,"la2":30.254,"lo1":-89.0895,"lo2":-89.0443,"dy":0.0025,"dx":0.0025,"nx":19,"ny":19,"refTime":"2026-05-23T21:00:00:Z","depth":0,"parameterNumber":3,"parameterNumberName":"V-component_of_WINDS"},"data":[0,0,0,0.4367,0.4366,0.4307,0.4307,0.4224,0.4224,0,0,0,0,0,0,0,0,0,0,0,0.4384,0.4383,0.4367,0.4366,0.4307,0.4307,0.4225,0.4224,0,0,0,0,0,0,0,0,0,0,0,0.4384,0.4383,0.4383,0.4366,0.4307,0.4307,0.4225,0.4271,0,0,0,0,0,0,0,0,0,0,0.4329,0.4344,0.4383,0.4383,0.4365,0.4307,0.4307,0.4273,0.4268,0.4249,0,0.4235,0,0.4228,0.4218,0.4218,0,0,0,0.4366,0.4348,0.4334,0.4382,0.4365,0.4307,0.4334,0.427,0.4264,0.4242,0.4234,0.4231,0.4227,0.4217,0.4217,0.4115,0.4115,0,0,0.4369,0.4372,0.4338,0.433,0.4342,0.4335,0.4332,0.4267,0.4257,0.4234,0.4229,0.4226,0.4217,0.4216,0.4116,0.4115,0,0,0,0.4378,0.4374,0.4361,0.4333,0.4323,0.4334,0.433,0.426,0.4255,0.4228,0.4225,0.4216,0.4215,0.4116,0.4115,0.4096,0,0,0,0.438,0.438,0.4363,0.4364,0.4325,0.4291,0.4324,0.426,0.4252,0.4225,0.4216,0.4215,0.4117,0.4116,0.4097,0.4085,0,0,0,0.4388,0.438,0.4372,0.4364,0.4339,0.4293,0.4284,0.4258,0.425,0.4218,0.4214,0.4117,0.4116,0.4099,0.4088,0.4058,0,0,0,0.4396,0.4354,0.4372,0.4324,0.434,0.4282,0.4285,0.4241,0.4211,0.4216,0.4117,0.4116,0.4099,0.4089,0.406,0.4034,0.4024,0,0,0.4345,0.4348,0.432,0.4334,0.4274,0.4291,0.4227,0.4195,0.4188,0.4139,0.4136,0.4097,0.4088,0.4059,0.3968,0.396,0,0,0,0.4305,0.4284,0.4268,0.4241,0.4217,0.4195,0.4174,0.4161,0.412,0.4165,0.4079,0.4073,0.4056,0.4043,0.4036,0.4021,0.411,0.411,0.4111,0.4236,0.4231,0.4183,0.4171,0.4144,0.4122,0.4099,0.4078,0.408,0.4059,0.4044,0.399,0.3976,0.3971,0.3954,0.4031,0.4031,0.4031,0.4031,0.416,0.4129,0.4134,0.4089,0.4082,0.4043,0.4019,0.4021,0.3982,0.4001,0.3986,0.4007,0.3962,0.3947,0.4029,0.403,0.403,0.403,0.403,0.4113,0.4098,0.4086,0.4046,0.4014,0.4002,0.3964,0.3959,0.3954,0.3939,0.3921,0.3922,0.392,0.3931,0.3931,0.3931,0.3931,0.3931,0.3931,0.4069,0.4056,0.4027,0.3999,0.398,0.3954,0.3931,0.3912,0.3888,0.3887,0.3887,0.3889,0.396,0.3977,0.3928,0.3928,0.3929,0.3929,0.3929,0.3992,0.4009,0.3963,0.3945,0.391,0.3878,0.3873,0.3833,0.3816,0.3797,0.3802,0.3856,0.3858,0.3863,0.3877,0.3805,0.3805,0.3805,0.3805,0.3951,0.3953,0.3905,0.3875,0.3845,0.3836,0.3781,0.3762,0.3744,0.3732,0.3742,0.376,0.3766,0.3764,0.3772,0.3785,0.3691,0.369,0.369,0.3902,0.3901,0.3856,0.3842,0.3815,0.379,0.3737,0.37,0.3683,0.3686,0.3722,0.3727,0.3757,0.3767,0.377,0.3782,0.3805,0,0]}]]